TimeCST,TemperatureF,Dew PointF,Humidity,Sea Level PressureIn,VisibilityMPH,Wind Direction,Wind SpeedMPH,Gust SpeedMPH,PrecipitationIn,Events,Conditions,WindDirDegrees,DateUTC
12:15 AM,23.0,19.4,86,30.25,10.0,Calm,Calm,-,N/A,,Clear,0,2012-11-28 06:15:00
12:55 AM,23.0,17.6,80,30.25,10.0,Calm,Calm,-,N/A,,Clear,0,2012-11-28 06:55:00
1:15 AM,23.0,19.4,86,30.26,10.0,Calm,Calm,-,N/A,,Clear,0,2012-11-28 07:15:00
1:35 AM,21.2,19.4,93,30.27,10.0,Calm,Calm,-,N/A,,Clear,0,2012-11-28 07:35:00
1:55 AM,21.2,17.6,86,30.27,10.0,Calm,Calm,-,N/A,,Clear,0,2012-11-28 07:55:00
2:15 AM,21.2,17.6,86,30.27,10.0,WNW,4.6,-,N/A,,Clear,300,2012-11-28 08:15:00
2:35 AM,21.2,17.6,86,30.28,10.0,NW,6.9,-,N/A,,Clear,320,2012-11-28 08:35:00
2:55 AM,21.2,17.6,86,30.29,10.0,NNW,4.6,-,N/A,,Clear,330,2012-11-28 08:55:00
3:15 AM,21.2,17.6,86,30.29,10.0,WNW,5.8,-,N/A,,Clear,300,2012-11-28 09:15:00
3:35 AM,21.2,17.6,86,30.29,10.0,NNW,8.1,-,N/A,,Clear,330,2012-11-28 09:35:00
3:55 AM,21.2,17.6,86,30.29,10.0,NW,5.8,-,N/A,,Clear,310,2012-11-28 09:55:00
4:15 AM,19.4,17.6,93,30.29,10.0,NNW,5.8,-,N/A,,Clear,340,2012-11-28 10:15:00
4:35 AM,19.4,17.6,93,30.30,10.0,NW,3.5,-,N/A,,Clear,320,2012-11-28 10:35:00
4:55 AM,17.6,14.0,86,30.30,10.0,West,4.6,-,N/A,,Clear,280,2012-11-28 10:55:00
5:15 AM,17.6,14.0,86,30.32,7.0,West,5.8,-,N/A,,Clear,270,2012-11-28 11:15:00
5:35 AM,14.0,12.2,93,30.32,7.0,WNW,3.5,-,N/A,,Clear,290,2012-11-28 11:35:00
5:55 AM,14.0,12.2,93,30.32,7.0,NNW,6.9,-,N/A,,Mostly Cloudy,330,2012-11-28 11:55:00
6:15 AM,17.6,17.6,100,30.33,1.0,NNW,5.8,-,N/A,,Overcast,340,2012-11-28 12:15:00
6:35 AM,19.4,17.6,93,30.33,0.5,North,5.8,-,N/A,Fog,Light Freezing Fog,360,2012-11-28 12:35:00
6:55 AM,19.4,17.6,93,30.34,0.2,NW,4.6,-,N/A,Fog,Light Freezing Fog,320,2012-11-28 12:55:00
7:15 AM,19.4,17.6,93,30.35,0.5,North,4.6,-,N/A,Fog,Light Freezing Fog,350,2012-11-28 13:15:00
7:35 AM,21.2,19.4,93,30.34,0.5,NNW,3.5,-,N/A,Fog,Light Freezing Fog,340,2012-11-28 13:35:00
7:55 AM,21.2,19.4,93,30.34,1.0,North,5.8,-,N/A,,Overcast,10,2012-11-28 13:55:00
8:15 AM,21.2,19.4,93,30.33,0.8,North,5.8,-,N/A,,Overcast,360,2012-11-28 14:15:00
8:35 AM,21.2,19.4,93,30.33,1.2,NNE,6.9,-,N/A,,Overcast,30,2012-11-28 14:35:00
8:55 AM,21.2,21.2,100,30.34,2.0,Calm,Calm,-,N/A,,Overcast,0,2012-11-28 14:55:00
9:15 AM,23.0,21.2,93,30.35,2.0,NE,3.5,-,N/A,,Overcast,40,2012-11-28 15:15:00
9:35 AM,23.0,21.2,93,30.34,3.0,Calm,Calm,-,N/A,,Overcast,0,2012-11-28 15:35:00
9:55 AM,23.0,21.2,93,30.35,3.0,Calm,Calm,-,N/A,,Overcast,0,2012-11-28 15:55:00
10:15 AM,23.0,21.2,93,30.36,2.5,Calm,Calm,-,N/A,,Overcast,0,2012-11-28 16:15:00
10:35 AM,23.0,23.0,100,30.36,3.0,SSW,3.5,-,N/A,,Overcast,200,2012-11-28 16:35:00
10:55 AM,23.0,21.2,93,30.36,3.0,South,5.8,-,N/A,,Overcast,180,2012-11-28 16:55:00
11:15 AM,23.0,23.0,100,30.35,3.0,Calm,Calm,-,N/A,,Overcast,0,2012-11-28 17:15:00
11:35 AM,24.8,23.0,93,30.34,4.0,SSW,6.9,-,N/A,,Overcast,210,2012-11-28 17:35:00
11:55 AM,-9999,-9999,N/A,30.33,5.0,SW,5.8,-,N/A,,Haze,220,2012-11-28 17:55:00
12:35 PM,28.4,26.6,93,30.30,5.0,South,3.5,-,N/A,,Scattered Clouds,190,2012-11-28 18:35:00
12:55 PM,30.2,24.8,80,30.29,10.0,South,3.5,-,N/A,,Clear,190,2012-11-28 18:55:00
1:15 PM,32.0,23.0,69,30.27,10.0,SSW,6.9,-,N/A,,Clear,210,2012-11-28 19:15:00
1:35 PM,33.8,23.0,65,30.27,10.0,SW,5.8,-,N/A,,Clear,220,2012-11-28 19:35:00
1:55 PM,35.6,23.0,60,30.26,10.0,South,6.9,-,N/A,,Clear,190,2012-11-28 19:55:00
2:15 PM,37.4,23.0,56,30.24,10.0,South,8.1,-,N/A,,Clear,180,2012-11-28 20:15:00
2:35 PM,37.4,23.0,56,30.22,10.0,SSW,8.1,-,N/A,,Clear,200,2012-11-28 20:35:00
2:55 PM,39.2,21.2,49,30.21,10.0,South,9.2,-,N/A,,Clear,180,2012-11-28 20:55:00
3:15 PM,41.0,21.2,45,30.20,10.0,South,9.2,-,N/A,,Clear,180,2012-11-28 21:15:00
3:35 PM,41.0,21.2,45,30.19,10.0,South,11.5,-,N/A,,Clear,170,2012-11-28 21:35:00
3:55 PM,39.2,21.2,49,30.19,10.0,South,8.1,-,N/A,,Clear,170,2012-11-28 21:55:00
4:15 PM,37.4,21.2,52,30.18,10.0,South,6.9,-,N/A,,Clear,170,2012-11-28 22:15:00
4:35 PM,35.6,19.4,52,30.18,10.0,South,9.2,-,N/A,,Clear,180,2012-11-28 22:35:00
4:55 PM,32.0,19.4,60,30.16,10.0,SSE,8.1,-,N/A,,Clear,160,2012-11-28 22:55:00
5:15 PM,32.0,19.4,60,30.16,10.0,SSE,8.1,-,N/A,,Clear,160,2012-11-28 23:15:00
5:35 PM,30.2,19.4,64,30.16,10.0,SSE,6.9,-,N/A,,Clear,150,2012-11-28 23:35:00
5:55 PM,30.2,19.4,64,30.16,10.0,SSE,6.9,-,N/A,,Clear,160,2012-11-28 23:55:00
6:15 PM,30.2,19.4,64,30.15,10.0,SSE,9.2,-,N/A,,Clear,160,2012-11-29 00:15:00
6:35 PM,30.2,19.4,64,30.15,10.0,SSE,8.1,-,N/A,,Clear,160,2012-11-29 00:35:00
6:55 PM,28.4,19.4,69,30.15,10.0,SSE,8.1,-,N/A,,Clear,160,2012-11-29 00:55:00
7:15 PM,28.4,19.4,69,30.13,10.0,SE,8.1,-,N/A,,Clear,140,2012-11-29 01:15:00
7:35 PM,28.4,19.4,69,30.13,10.0,SSE,6.9,-,N/A,,Clear,150,2012-11-29 01:35:00
7:55 PM,28.4,19.4,69,30.12,10.0,SSE,9.2,-,N/A,,Clear,150,2012-11-29 01:55:00
8:15 PM,28.4,19.4,69,30.12,10.0,SSE,8.1,-,N/A,,Clear,150,2012-11-29 02:15:00
8:35 PM,30.2,19.4,64,30.12,10.0,SSE,9.2,-,N/A,,Clear,150,2012-11-29 02:35:00
8:55 PM,30.2,19.4,64,30.12,10.0,SSE,9.2,-,N/A,,Clear,150,2012-11-29 02:55:00
9:15 PM,30.2,19.4,64,30.10,10.0,SSE,9.2,-,N/A,,Clear,150,2012-11-29 03:15:00
9:35 PM,30.2,19.4,64,30.10,10.0,SSE,8.1,-,N/A,,Clear,150,2012-11-29 03:35:00
9:55 PM,32.0,19.4,60,30.11,10.0,SSE,5.8,-,N/A,,Clear,150,2012-11-29 03:55:00
10:15 PM,30.2,19.4,64,30.10,10.0,SE,4.6,-,N/A,,Clear,130,2012-11-29 04:15:00
10:35 PM,30.2,21.2,69,30.10,10.0,SE,4.6,-,N/A,,Clear,130,2012-11-29 04:35:00
10:55 PM,28.4,19.4,69,30.09,10.0,SE,4.6,-,N/A,,Clear,130,2012-11-29 04:55:00
11:15 PM,28.4,19.4,69,30.10,10.0,ESE,4.6,-,N/A,,Clear,120,2012-11-29 05:15:00
11:35 PM,23.0,17.6,80,30.10,10.0,SE,5.8,-,N/A,,Clear,140,2012-11-29 05:35:00
11:55 PM,23.0,17.6,80,30.09,10.0,SE,4.6,-,N/A,,Clear,140,2012-11-29 05:55:00